Information on these data can be found in provided Readme document
Contact Info: Zachary Fasnacht (zachary.fasnacht@ssaihq.com); Nickolay Krotkov (nickolay.a.krotkov@nasa.gov); Lok Lamsal (lok.lamsal@nasa.gov)

FillValue: -999.
ScaleFactor: 1e15
Units: molecules/cm^2

Date(yyyy-mm-dd),City,Country,LonCenter,LatCenter,BoundingCoordinates,Median,Q1,Q3,Mean,Baseline_Median,Baseline_Q1,Baseline_Q3,Baseline_Mean,NumGoodSamples,NumTotalSamples
2015-01-01,PortMoresby,PapuaNewGuinea,147.1333,-9.4167,[146.6333 -9.9167 147.6333 -8.9167],0.23,-0.062,0.481,0.269,0.277,0.01,0.532,0.3,132.0,523.0
2015-01-02,PortMoresby,PapuaNewGuinea,147.1333,-9.4167,[146.6333 -9.9167 147.6333 -8.9167],0.23,-0.067,0.451,0.257,0.263,-0.011,0.519,0.289,114.0,501.0
2015-01-03,PortMoresby,PapuaNewGuinea,147.1333,-9.4167,[146.6333 -9.9167 147.6333 -8.9167],0.232,-0.052,0.504,0.274,0.255,-0.01,0.522,0.287,105.0,530.0
2015-01-04,PortMoresby,PapuaNewGuinea,147.1333,-9.4167,[146.6333 -9.9167 147.6333 -8.9167],0.234,-0.052,0.504,0.276,0.254,-0.018,0.541,0.296,103.0,511.0
2015-01-05,PortMoresby,PapuaNewGuinea,147.1333,-9.4167,[146.6333 -9.9167 147.6333 -8.9167],0.23,-0.067,0.44,0.255,0.221,-0.036,0.512,0.266,88.0,517.0
2015-01-06,PortMoresby,PapuaNewGuinea,147.1333,-9.4167,[146.6333 -9.9167 147.6333 -8.9167],0.201,-0.126,0.437,0.222,0.185,-0.077,0.504,0.24,76.0,524.0
2015-01-07,PortMoresby,PapuaNewGuinea,147.1333,-9.4167,[146.6333 -9.9167 147.6333 -8.9167],0.23,-0.067,0.446,0.249,0.195,-0.062,0.508,0.25,84.0,506.0
2015-01-08,PortMoresby,PapuaNewGuinea,147.1333,-9.4167,[146.6333 -9.9167 147.6333 -8.9167],0.253,-0.045,0.545,0.301,0.201,-0.064,0.517,0.247,74.0,530.0
2015-01-09,PortMoresby,PapuaNewGuinea,147.1333,-9.4167,[146.6333 -9.9167 147.6333 -8.9167],0.304,-0.049,0.672,0.318,0.221,-0.053,0.552,0.266,78.0,498.0
2015-01-10,PortMoresby,PapuaNewGuinea,147.1333,-9.4167,[146.6333 -9.9167 147.6333 -8.9167],0.338,-0.049,0.688,0.364,0.198,-0.095,0.523,0.241,73.0,478.0
2015-01-11,PortMoresby,PapuaNewGuinea,147.1333,-9.4167,[146.6333 -9.9167 147.6333 -8.9167],0.288,-0.017,0.682,0.347,0.204,-0.096,0.516,0.241,58.0,456.0
2015-01-12,PortMoresby,PapuaNewGuinea,147.1333,-9.4167,[146.6333 -9.9167 147.6333 -8.9167],0.288,-0.017,0.682,0.366,0.2,-0.093,0.514,0.248,81.0,480.0
2015-01-13,PortMoresby,PapuaNewGuinea,147.1333,-9.4167,[146.6333 -9.9167 147.6333 -8.9167],0.27,-0.043,0.634,0.306,0.194,-0.103,0.5,0.236,98.0,467.0
2015-01-14,PortMoresby,PapuaNewGuinea,147.1333,-9.4167,[146.6333 -9.9167 147.6333 -8.9167],0.267,-0.064,0.555,0.251,0.203,-0.103,0.486,0.222,103.0,467.0
2015-01-15,PortMoresby,PapuaNewGuinea,147.1333,-9.4167,[146.6333 -9.9167 147.6333 -8.9167],0.247,-0.066,0.555,0.254,0.182,-0.12,0.487,0.223,109.0,475.0
2015-01-16,PortMoresby,PapuaNewGuinea,147.1333,-9.4167,[146.6333 -9.9167 147.6333 -8.9167],0.267,-0.059,0.497,0.252,0.186,-0.116,0.455,0.206,117.0,451.0
2015-01-17,PortMoresby,PapuaNewGuinea,147.1333,-9.4167,[146.6333 -9.9167 147.6333 -8.9167],0.267,-0.059,0.497,0.252,0.191,-0.122,0.461,0.201,116.0,473.0
2015-01-18,PortMoresby,PapuaNewGuinea,147.1333,-9.4167,[146.6333 -9.9167 147.6333 -8.9167],0.129,-0.066,0.4,0.16,0.156,-0.121,0.432,0.191,136.0,452.0
2015-01-19,PortMoresby,PapuaNewGuinea,147.1333,-9.4167,[146.6333 -9.9167 147.6333 -8.9167],0.137,-0.066,0.407,0.164,0.135,-0.134,0.43,0.186,156.0,483.0
2015-01-20,PortMoresby,PapuaNewGuinea,147.1333,-9.4167,[146.6333 -9.9167 147.6333 -8.9167],0.152,-0.059,0.4,0.176,0.173,-0.133,0.438,0.201,168.0,467.0
2015-01-21,PortMoresby,PapuaNewGuinea,147.1333,-9.4167,[146.6333 -9.9167 147.6333 -8.9167],0.152,-0.066,0.407,0.153,0.187,-0.131,0.449,0.199,190.0,472.0
2015-01-22,PortMoresby,PapuaNewGuinea,147.1333,-9.4167,[146.6333 -9.9167 147.6333 -8.9167],0.137,-0.066,0.391,0.142,0.17,-0.133,0.44,0.185,192.0,478.0
2015-01-23,PortMoresby,PapuaNewGuinea,147.1333,-9.4167,[146.6333 -9.9167 147.6333 -8.9167],0.137,-0.066,0.391,0.142,0.163,-0.124,0.432,0.183,192.0,460.0
2015-01-24,PortMoresby,PapuaNewGuinea,147.1333,-9.4167,[146.6333 -9.9167 147.6333 -8.9167],0.137,-0.066,0.375,0.131,0.158,-0.13,0.427,0.176,188.0,484.0
2015-01-25,PortMoresby,PapuaNewGuinea,147.1333,-9.4167,[146.6333 -9.9167 147.6333 -8.9167],0.137,-0.066,0.375,0.132,0.177,-0.113,0.429,0.193,191.0,507.0
2015-01-26,PortMoresby,PapuaNewGuinea,147.1333,-9.4167,[146.6333 -9.9167 147.6333 -8.9167],0.137,-0.091,0.375,0.114,0.176,-0.129,0.425,0.18,180.0,537.0
2015-01-27,PortMoresby,PapuaNewGuinea,147.1333,-9.4167,[146.6333 -9.9167 147.6333 -8.9167],0.115,-0.13,0.309,0.057,0.158,-0.151,0.4,0.139,158.0,513.0
2015-01-28,PortMoresby,PapuaNewGuinea,147.1333,-9.4167,[146.6333 -9.9167 147.6333 -8.9167],0.115,-0.141,0.293,0.054,0.162,-0.142,0.397,0.14,141.0,538.0
2015-01-29,PortMoresby,PapuaNewGuinea,147.1333,-9.4167,[146.6333 -9.9167 147.6333 -8.9167],0.114,-0.105,0.288,0.052,0.128,-0.117,0.378,0.127,117.0,522.0
2015-01-30,PortMoresby,PapuaNewGuinea,147.1333,-9.4167,[146.6333 -9.9167 147.6333 -8.9167],0.114,-0.105,0.29,0.049,0.111,-0.111,0.385,0.126,131.0,521.0
2015-01-31,PortMoresby,PapuaNewGuinea,147.1333,-9.4167,[146.6333 -9.9167 147.6333 -8.9167],0.095,-0.109,0.29,0.063,0.105,-0.125,0.378,0.129,143.0,530.0
2015-02-01,PortMoresby,PapuaNewGuinea,147.1333,-9.4167,[146.6333 -9.9167 147.6333 -8.9167],0.095,-0.109,0.31,0.065,0.1,-0.12,0.389,0.129,149.0,506.0
2015-02-02,PortMoresby,PapuaNewGuinea,147.1333,-9.4167,[146.6333 -9.9167 147.6333 -8.9167],0.14,-0.092,0.392,0.119,0.101,-0.114,0.395,0.142,129.0,526.0
2015-02-03,PortMoresby,PapuaNewGuinea,147.1333,-9.4167,[146.6333 -9.9167 147.6333 -8.9167],0.14,-0.092,0.39,0.11,0.121,-0.101,0.414,0.148,114.0,506.0
2015-02-04,PortMoresby,PapuaNewGuinea,147.1333,-9.4167,[146.6333 -9.9167 147.6333 -8.9167],0.122,-0.105,0.361,0.072,0.102,-0.103,0.41,0.137,108.0,538.0
2015-02-05,PortMoresby,PapuaNewGuinea,147.1333,-9.4167,[146.6333 -9.9167 147.6333 -8.9167],0.116,-0.105,0.352,0.104,0.091,-0.1,0.424,0.149,87.0,522.0
2015-02-06,PortMoresby,PapuaNewGuinea,147.1333,-9.4167,[146.6333 -9.9167 147.6333 -8.9167],0.115,-0.105,0.352,0.067,0.091,-0.099,0.422,0.146,72.0,528.0
2015-02-07,PortMoresby,PapuaNewGuinea,147.1333,-9.4167,[146.6333 -9.9167 147.6333 -8.9167],0.122,-0.105,0.352,0.108,0.102,-0.1,0.432,0.155,83.0,533.0
2015-02-08,PortMoresby,PapuaNewGuinea,147.1333,-9.4167,[146.6333 -9.9167 147.6333 -8.9167],0.126,-0.105,0.352,0.11,0.112,-0.105,0.434,0.159,84.0,515.0
2015-02-09,PortMoresby,PapuaNewGuinea,147.1333,-9.4167,[146.6333 -9.9167 147.6333 -8.9167],0.126,-0.105,0.368,0.14,0.106,-0.113,0.445,0.159,94.0,537.0
2015-02-10,PortMoresby,PapuaNewGuinea,147.1333,-9.4167,[146.6333 -9.9167 147.6333 -8.9167],0.126,-0.092,0.368,0.148,0.127,-0.099,0.441,0.18,96.0,505.0
2015-02-11,PortMoresby,PapuaNewGuinea,147.1333,-9.4167,[146.6333 -9.9167 147.6333 -8.9167],0.247,-0.05,0.557,0.246,0.143,-0.102,0.454,0.194,85.0,483.0
2015-02-12,PortMoresby,PapuaNewGuinea,147.1333,-9.4167,[146.6333 -9.9167 147.6333 -8.9167],0.368,0.034,0.682,0.326,0.163,-0.089,0.483,0.212,95.0,456.0
2015-02-13,PortMoresby,PapuaNewGuinea,147.1333,-9.4167,[146.6333 -9.9167 147.6333 -8.9167],0.368,0.034,0.655,0.321,0.176,-0.098,0.51,0.226,119.0,481.0
2015-02-14,PortMoresby,PapuaNewGuinea,147.1333,-9.4167,[146.6333 -9.9167 147.6333 -8.9167],0.374,0.036,0.682,0.348,0.172,-0.08,0.489,0.22,109.0,469.0
2015-02-15,PortMoresby,PapuaNewGuinea,147.1333,-9.4167,[146.6333 -9.9167 147.6333 -8.9167],0.374,0.058,0.676,0.367,0.167,-0.106,0.487,0.213,107.0,467.0
2015-02-16,PortMoresby,PapuaNewGuinea,147.1333,-9.4167,[146.6333 -9.9167 147.6333 -8.9167],0.378,0.103,0.676,0.385,0.163,-0.096,0.473,0.219,105.0,477.0
2015-02-17,PortMoresby,PapuaNewGuinea,147.1333,-9.4167,[146.6333 -9.9167 147.6333 -8.9167],0.378,0.111,0.655,0.378,0.197,-0.078,0.463,0.223,115.0,455.0
2015-02-18,PortMoresby,PapuaNewGuinea,147.1333,-9.4167,[146.6333 -9.9167 147.6333 -8.9167],0.467,0.155,0.682,0.406,0.197,-0.089,0.471,0.223,110.0,473.0
2015-02-19,PortMoresby,PapuaNewGuinea,147.1333,-9.4167,[146.6333 -9.9167 147.6333 -8.9167],0.467,0.19,0.682,0.424,0.203,-0.089,0.479,0.23,104.0,451.0
2015-02-20,PortMoresby,PapuaNewGuinea,147.1333,-9.4167,[146.6333 -9.9167 147.6333 -8.9167],0.467,0.155,0.682,0.411,0.212,-0.084,0.496,0.242,121.0,482.0
2015-02-21,PortMoresby,PapuaNewGuinea,147.1333,-9.4167,[146.6333 -9.9167 147.6333 -8.9167],0.464,0.107,0.655,0.374,0.218,-0.081,0.492,0.241,130.0,465.0
2015-02-22,PortMoresby,PapuaNewGuinea,147.1333,-9.4167,[146.6333 -9.9167 147.6333 -8.9167],0.44,0.051,0.638,0.334,0.206,-0.099,0.472,0.223,138.0,472.0
2015-02-23,PortMoresby,PapuaNewGuinea,147.1333,-9.4167,[146.6333 -9.9167 147.6333 -8.9167],0.448,0.051,0.638,0.336,0.221,-0.08,0.493,0.235,137.0,477.0
2015-02-24,PortMoresby,PapuaNewGuinea,147.1333,-9.4167,[146.6333 -9.9167 147.6333 -8.9167],0.44,0.041,0.637,0.32,0.221,-0.067,0.481,0.237,124.0,456.0
2015-02-25,PortMoresby,PapuaNewGuinea,147.1333,-9.4167,[146.6333 -9.9167 147.6333 -8.9167],0.44,0.051,0.632,0.316,0.219,-0.074,0.477,0.234,123.0,478.0
2015-02-26,PortMoresby,PapuaNewGuinea,147.1333,-9.4167,[146.6333 -9.9167 147.6333 -8.9167],0.378,0.095,0.621,0.323,0.223,-0.061,0.52,0.252,129.0,500.0
2015-02-27,PortMoresby,PapuaNewGuinea,147.1333,-9.4167,[146.6333 -9.9167 147.6333 -8.9167],0.307,-0.055,0.56,0.259,0.224,-0.074,0.506,0.253,119.0,534.0
2015-02-28,PortMoresby,PapuaNewGuinea,147.1333,-9.4167,[146.6333 -9.9167 147.6333 -8.9167],0.307,-0.066,0.583,0.255,0.231,-0.066,0.53,0.264,95.0,513.0
2015-03-01,PortMoresby,PapuaNewGuinea,147.1333,-9.4167,[146.6333 -9.9167 147.6333 -8.9167],0.307,-0.055,0.56,0.255,0.243,-0.074,0.565,0.276,85.0,535.0
2015-03-02,PortMoresby,PapuaNewGuinea,147.1333,-9.4167,[146.6333 -9.9167 147.6333 -8.9167],0.286,-0.103,0.493,0.173,0.204,-0.059,0.541,0.254,67.0,522.0
2015-03-03,PortMoresby,PapuaNewGuinea,147.1333,-9.4167,[146.6333 -9.9167 147.6333 -8.9167],0.307,-0.066,0.493,0.175,0.209,-0.072,0.516,0.243,63.0,520.0
2015-03-04,PortMoresby,PapuaNewGuinea,147.1333,-9.4167,[146.6333 -9.9167 147.6333 -8.9167],0.286,-0.187,0.462,0.118,0.212,-0.098,0.54,0.247,53.0,528.0
2015-03-05,PortMoresby,PapuaNewGuinea,147.1333,-9.4167,[146.6333 -9.9167 147.6333 -8.9167],0.286,-0.187,0.462,0.118,0.198,-0.108,0.548,0.243,53.0,506.0
2015-03-06,PortMoresby,PapuaNewGuinea,147.1333,-9.4167,[146.6333 -9.9167 147.6333 -8.9167],0.286,-0.187,0.462,0.118,0.193,-0.106,0.54,0.244,53.0,525.0
2015-03-07,PortMoresby,PapuaNewGuinea,147.1333,-9.4167,[146.6333 -9.9167 147.6333 -8.9167],0.123,-0.059,0.373,0.086,0.16,-0.105,0.506,0.22,48.0,504.0
2015-03-08,PortMoresby,PapuaNewGuinea,147.1333,-9.4167,[146.6333 -9.9167 147.6333 -8.9167],0.19,-0.059,0.373,0.108,0.168,-0.127,0.504,0.223,39.0,535.0
2015-03-09,PortMoresby,PapuaNewGuinea,147.1333,-9.4167,[146.6333 -9.9167 147.6333 -8.9167],0.269,-0.051,0.373,0.132,0.196,-0.12,0.558,0.246,20.0,517.0
2015-03-10,PortMoresby,PapuaNewGuinea,147.1333,-9.4167,[146.6333 -9.9167 147.6333 -8.9167],0.269,-0.051,0.403,0.203,0.19,-0.121,0.527,0.245,30.0,523.0
2015-03-11,PortMoresby,PapuaNewGuinea,147.1333,-9.4167,[146.6333 -9.9167 147.6333 -8.9167],0.149,-0.059,0.373,0.145,0.216,-0.134,0.598,0.244,47.0,532.0
2015-03-12,PortMoresby,PapuaNewGuinea,147.1333,-9.4167,[146.6333 -9.9167 147.6333 -8.9167],0.175,-0.059,0.403,0.174,0.18,-0.131,0.515,0.225,59.0,517.0
2015-03-13,PortMoresby,PapuaNewGuinea,147.1333,-9.4167,[146.6333 -9.9167 147.6333 -8.9167],0.123,-0.187,0.403,0.154,0.168,-0.147,0.558,0.23,61.0,540.0
2015-03-14,PortMoresby,PapuaNewGuinea,147.1333,-9.4167,[146.6333 -9.9167 147.6333 -8.9167],0.123,-0.173,0.473,0.171,0.153,-0.18,0.521,0.199,74.0,509.0
2015-03-15,PortMoresby,PapuaNewGuinea,147.1333,-9.4167,[146.6333 -9.9167 147.6333 -8.9167],0.123,-0.173,0.473,0.171,0.087,-0.198,0.417,0.164,74.0,485.0
2015-03-16,PortMoresby,PapuaNewGuinea,147.1333,-9.4167,[146.6333 -9.9167 147.6333 -8.9167],0.123,-0.187,0.473,0.168,0.088,-0.194,0.434,0.17,75.0,458.0
2015-03-17,PortMoresby,PapuaNewGuinea,147.1333,-9.4167,[146.6333 -9.9167 147.6333 -8.9167],0.165,-0.125,0.49,0.226,0.138,-0.154,0.514,0.223,101.0,484.0
2015-03-18,PortMoresby,PapuaNewGuinea,147.1333,-9.4167,[146.6333 -9.9167 147.6333 -8.9167],0.151,-0.125,0.49,0.208,0.093,-0.18,0.491,0.189,114.0,473.0
2015-03-19,PortMoresby,PapuaNewGuinea,147.1333,-9.4167,[146.6333 -9.9167 147.6333 -8.9167],0.151,-0.128,0.49,0.206,0.068,-0.207,0.448,0.17,124.0,470.0
2015-03-20,PortMoresby,PapuaNewGuinea,147.1333,-9.4167,[146.6333 -9.9167 147.6333 -8.9167],0.165,-0.125,0.51,0.211,0.076,-0.218,0.458,0.176,129.0,479.0
2015-03-21,PortMoresby,PapuaNewGuinea,147.1333,-9.4167,[146.6333 -9.9167 147.6333 -8.9167],0.123,-0.125,0.49,0.201,0.063,-0.217,0.456,0.161,142.0,459.0
2015-03-22,PortMoresby,PapuaNewGuinea,147.1333,-9.4167,[146.6333 -9.9167 147.6333 -8.9167],0.165,-0.171,0.574,0.242,0.068,-0.235,0.48,0.171,129.0,478.0
2015-03-23,PortMoresby,PapuaNewGuinea,147.1333,-9.4167,[146.6333 -9.9167 147.6333 -8.9167],0.034,-0.165,0.39,0.16,0.043,-0.219,0.433,0.157,149.0,453.0
2015-03-24,PortMoresby,PapuaNewGuinea,147.1333,-9.4167,[146.6333 -9.9167 147.6333 -8.9167],0.04,-0.18,0.39,0.152,0.046,-0.23,0.449,0.152,168.0,483.0
2015-03-25,PortMoresby,PapuaNewGuinea,147.1333,-9.4167,[146.6333 -9.9167 147.6333 -8.9167],0.019,-0.176,0.364,0.13,0.035,-0.222,0.437,0.148,170.0,466.0
2015-03-26,PortMoresby,PapuaNewGuinea,147.1333,-9.4167,[146.6333 -9.9167 147.6333 -8.9167],0.034,-0.162,0.389,0.15,0.039,-0.202,0.419,0.138,169.0,471.0
2015-03-27,PortMoresby,PapuaNewGuinea,147.1333,-9.4167,[146.6333 -9.9167 147.6333 -8.9167],0.034,-0.165,0.39,0.137,0.045,-0.207,0.425,0.139,174.0,476.0
2015-03-28,PortMoresby,PapuaNewGuinea,147.1333,-9.4167,[146.6333 -9.9167 147.6333 -8.9167],0.075,-0.154,0.394,0.17,0.05,-0.204,0.399,0.135,182.0,460.0
2015-03-29,PortMoresby,PapuaNewGuinea,147.1333,-9.4167,[146.6333 -9.9167 147.6333 -8.9167],0.04,-0.154,0.39,0.167,0.058,-0.198,0.431,0.148,171.0,483.0
2015-03-30,PortMoresby,PapuaNewGuinea,147.1333,-9.4167,[146.6333 -9.9167 147.6333 -8.9167],0.075,-0.154,0.391,0.168,0.106,-0.182,0.432,0.162,186.0,505.0
2015-03-31,PortMoresby,PapuaNewGuinea,147.1333,-9.4167,[146.6333 -9.9167 147.6333 -8.9167],0.082,-0.154,0.391,0.17,0.096,-0.183,0.444,0.161,185.0,540.0
2015-04-01,PortMoresby,PapuaNewGuinea,147.1333,-9.4167,[146.6333 -9.9167 147.6333 -8.9167],0.086,-0.133,0.423,0.167,0.106,-0.168,0.462,0.173,168.0,513.0
2015-04-02,PortMoresby,PapuaNewGuinea,147.1333,-9.4167,[146.6333 -9.9167 147.6333 -8.9167],0.093,-0.133,0.423,0.172,0.129,-0.139,0.496,0.198,163.0,535.0
2015-04-03,PortMoresby,PapuaNewGuinea,147.1333,-9.4167,[146.6333 -9.9167 147.6333 -8.9167],0.087,-0.13,0.428,0.177,0.126,-0.121,0.474,0.202,163.0,526.0
2015-04-04,PortMoresby,PapuaNewGuinea,147.1333,-9.4167,[146.6333 -9.9167 147.6333 -8.9167],0.099,-0.13,0.428,0.184,0.136,-0.115,0.487,0.204,175.0,520.0
2015-04-05,PortMoresby,PapuaNewGuinea,147.1333,-9.4167,[146.6333 -9.9167 147.6333 -8.9167],0.133,-0.13,0.444,0.194,0.154,-0.116,0.493,0.217,175.0,525.0
2015-04-06,PortMoresby,PapuaNewGuinea,147.1333,-9.4167,[146.6333 -9.9167 147.6333 -8.9167],0.149,-0.109,0.464,0.205,0.156,-0.114,0.486,0.213,189.0,505.0
2015-04-07,PortMoresby,PapuaNewGuinea,147.1333,-9.4167,[146.6333 -9.9167 147.6333 -8.9167],0.272,-0.024,0.584,0.275,0.186,-0.089,0.534,0.233,169.0,528.0
2015-04-08,PortMoresby,PapuaNewGuinea,147.1333,-9.4167,[146.6333 -9.9167 147.6333 -8.9167],0.187,-0.054,0.53,0.253,0.167,-0.101,0.501,0.218,164.0,504.0
2015-04-09,PortMoresby,PapuaNewGuinea,147.1333,-9.4167,[146.6333 -9.9167 147.6333 -8.9167],0.189,-0.054,0.538,0.254,0.148,-0.107,0.496,0.211,174.0,535.0
2015-04-10,PortMoresby,PapuaNewGuinea,147.1333,-9.4167,[146.6333 -9.9167 147.6333 -8.9167],0.187,-0.057,0.521,0.23,0.165,-0.101,0.489,0.222,172.0,518.0
2015-04-11,PortMoresby,PapuaNewGuinea,147.1333,-9.4167,[146.6333 -9.9167 147.6333 -8.9167],0.184,-0.057,0.538,0.233,0.158,-0.098,0.477,0.213,158.0,524.0
2015-04-12,PortMoresby,PapuaNewGuinea,147.1333,-9.4167,[146.6333 -9.9167 147.6333 -8.9167],0.136,-0.07,0.492,0.197,0.16,-0.093,0.48,0.208,153.0,527.0
2015-04-13,PortMoresby,PapuaNewGuinea,147.1333,-9.4167,[146.6333 -9.9167 147.6333 -8.9167],0.132,-0.07,0.492,0.193,0.154,-0.092,0.484,0.202,151.0,507.0
2015-04-14,PortMoresby,PapuaNewGuinea,147.1333,-9.4167,[146.6333 -9.9167 147.6333 -8.9167],0.184,-0.07,0.538,0.216,0.17,-0.1,0.47,0.2,141.0,530.0
2015-04-15,PortMoresby,PapuaNewGuinea,147.1333,-9.4167,[146.6333 -9.9167 147.6333 -8.9167],0.187,-0.057,0.538,0.23,0.167,-0.094,0.463,0.2,155.0,498.0
2015-04-16,PortMoresby,PapuaNewGuinea,147.1333,-9.4167,[146.6333 -9.9167 147.6333 -8.9167],0.132,-0.067,0.464,0.204,0.124,-0.129,0.413,0.178,146.0,478.0
2015-04-17,PortMoresby,PapuaNewGuinea,147.1333,-9.4167,[146.6333 -9.9167 147.6333 -8.9167],0.132,-0.057,0.464,0.207,0.132,-0.129,0.414,0.174,138.0,434.0
2015-04-18,PortMoresby,PapuaNewGuinea,147.1333,-9.4167,[146.6333 -9.9167 147.6333 -8.9167],0.132,-0.07,0.452,0.204,0.132,-0.133,0.425,0.176,145.0,456.0
2015-04-19,PortMoresby,PapuaNewGuinea,147.1333,-9.4167,[146.6333 -9.9167 147.6333 -8.9167],0.107,-0.07,0.374,0.177,0.123,-0.145,0.399,0.163,137.0,446.0
2015-04-20,PortMoresby,PapuaNewGuinea,147.1333,-9.4167,[146.6333 -9.9167 147.6333 -8.9167],0.099,-0.087,0.372,0.171,0.13,-0.145,0.387,0.154,133.0,446.0
2015-04-21,PortMoresby,PapuaNewGuinea,147.1333,-9.4167,[146.6333 -9.9167 147.6333 -8.9167],0.081,-0.102,0.316,0.139,0.132,-0.145,0.385,0.154,134.0,452.0
2015-04-22,PortMoresby,PapuaNewGuinea,147.1333,-9.4167,[146.6333 -9.9167 147.6333 -8.9167],0.075,-0.128,0.303,0.126,0.112,-0.144,0.374,0.143,142.0,426.0
2015-04-23,PortMoresby,PapuaNewGuinea,147.1333,-9.4167,[146.6333 -9.9167 147.6333 -8.9167],0.083,-0.177,0.425,0.139,0.13,-0.144,0.412,0.173,128.0,450.0
2015-04-24,PortMoresby,PapuaNewGuinea,147.1333,-9.4167,[146.6333 -9.9167 147.6333 -8.9167],0.099,-0.169,0.358,0.147,0.157,-0.134,0.427,0.186,122.0,430.0
2015-04-25,PortMoresby,PapuaNewGuinea,147.1333,-9.4167,[146.6333 -9.9167 147.6333 -8.9167],0.149,-0.068,0.452,0.2,0.17,-0.112,0.424,0.19,125.0,462.0
2015-04-26,PortMoresby,PapuaNewGuinea,147.1333,-9.4167,[146.6333 -9.9167 147.6333 -8.9167],0.188,-0.048,0.46,0.217,0.176,-0.128,0.452,0.199,129.0,445.0
2015-04-27,PortMoresby,PapuaNewGuinea,147.1333,-9.4167,[146.6333 -9.9167 147.6333 -8.9167],0.188,-0.048,0.484,0.221,0.158,-0.143,0.442,0.182,134.0,453.0
2015-04-28,PortMoresby,PapuaNewGuinea,147.1333,-9.4167,[146.6333 -9.9167 147.6333 -8.9167],0.188,-0.047,0.493,0.228,0.161,-0.13,0.444,0.191,145.0,457.0
2015-04-29,PortMoresby,PapuaNewGuinea,147.1333,-9.4167,[146.6333 -9.9167 147.6333 -8.9167],0.186,-0.048,0.46,0.202,0.144,-0.131,0.436,0.181,140.0,435.0
2015-04-30,PortMoresby,PapuaNewGuinea,147.1333,-9.4167,[146.6333 -9.9167 147.6333 -8.9167],0.171,-0.063,0.429,0.184,0.134,-0.131,0.436,0.176,132.0,455.0
2015-05-01,PortMoresby,PapuaNewGuinea,147.1333,-9.4167,[146.6333 -9.9167 147.6333 -8.9167],0.177,-0.048,0.494,0.205,0.15,-0.132,0.458,0.182,148.0,477.0
2015-05-02,PortMoresby,PapuaNewGuinea,147.1333,-9.4167,[146.6333 -9.9167 147.6333 -8.9167],0.177,-0.048,0.494,0.205,0.165,-0.094,0.473,0.2,148.0,530.0
2015-05-03,PortMoresby,PapuaNewGuinea,147.1333,-9.4167,[146.6333 -9.9167 147.6333 -8.9167],0.171,-0.021,0.489,0.21,0.18,-0.091,0.487,0.21,146.0,512.0
2015-05-04,PortMoresby,PapuaNewGuinea,147.1333,-9.4167,[146.6333 -9.9167 147.6333 -8.9167],0.186,-0.012,0.493,0.223,0.169,-0.084,0.487,0.214,137.0,538.0
2015-05-05,PortMoresby,PapuaNewGuinea,147.1333,-9.4167,[146.6333 -9.9167 147.6333 -8.9167],0.188,0.005,0.493,0.224,0.169,-0.084,0.487,0.217,128.0,526.0
2015-05-06,PortMoresby,PapuaNewGuinea,147.1333,-9.4167,[146.6333 -9.9167 147.6333 -8.9167],0.188,0.007,0.493,0.238,0.17,-0.079,0.486,0.221,113.0,525.0
2015-05-07,PortMoresby,PapuaNewGuinea,147.1333,-9.4167,[146.6333 -9.9167 147.6333 -8.9167],0.266,0.037,0.494,0.268,0.189,-0.078,0.501,0.23,105.0,536.0
2015-05-08,PortMoresby,PapuaNewGuinea,147.1333,-9.4167,[146.6333 -9.9167 147.6333 -8.9167],0.188,0.021,0.472,0.223,0.165,-0.08,0.475,0.212,112.0,507.0
2015-05-09,PortMoresby,PapuaNewGuinea,147.1333,-9.4167,[146.6333 -9.9167 147.6333 -8.9167],0.191,0.038,0.493,0.247,0.162,-0.074,0.499,0.221,96.0,526.0
2015-05-10,PortMoresby,PapuaNewGuinea,147.1333,-9.4167,[146.6333 -9.9167 147.6333 -8.9167],0.175,0.03,0.484,0.212,0.163,-0.084,0.511,0.221,84.0,507.0
2015-05-11,PortMoresby,PapuaNewGuinea,147.1333,-9.4167,[146.6333 -9.9167 147.6333 -8.9167],0.156,0.007,0.465,0.178,0.168,-0.082,0.51,0.218,93.0,536.0
2015-05-12,PortMoresby,PapuaNewGuinea,147.1333,-9.4167,[146.6333 -9.9167 147.6333 -8.9167],0.171,-0.021,0.465,0.164,0.185,-0.079,0.524,0.231,94.0,516.0
2015-05-13,PortMoresby,PapuaNewGuinea,147.1333,-9.4167,[146.6333 -9.9167 147.6333 -8.9167],0.165,-0.022,0.465,0.171,0.185,-0.079,0.521,0.23,116.0,527.0
2015-05-14,PortMoresby,PapuaNewGuinea,147.1333,-9.4167,[146.6333 -9.9167 147.6333 -8.9167],0.107,-0.104,0.456,0.156,0.191,-0.08,0.537,0.23,133.0,534.0
2015-05-15,PortMoresby,PapuaNewGuinea,147.1333,-9.4167,[146.6333 -9.9167 147.6333 -8.9167],0.119,-0.093,0.456,0.165,0.187,-0.077,0.523,0.222,136.0,515.0
2015-05-16,PortMoresby,PapuaNewGuinea,147.1333,-9.4167,[146.6333 -9.9167 147.6333 -8.9167],0.097,-0.132,0.358,0.145,0.197,-0.077,0.503,0.222,122.0,537.0
2015-05-17,PortMoresby,PapuaNewGuinea,147.1333,-9.4167,[146.6333 -9.9167 147.6333 -8.9167],0.152,-0.083,0.491,0.188,0.189,-0.083,0.547,0.228,135.0,504.0
2015-05-18,PortMoresby,PapuaNewGuinea,147.1333,-9.4167,[146.6333 -9.9167 147.6333 -8.9167],0.173,-0.144,0.491,0.174,0.193,-0.086,0.541,0.231,120.0,476.0
2015-05-19,PortMoresby,PapuaNewGuinea,147.1333,-9.4167,[146.6333 -9.9167 147.6333 -8.9167],0.191,-0.103,0.456,0.183,0.203,-0.085,0.544,0.236,127.0,457.0
2015-05-20,PortMoresby,PapuaNewGuinea,147.1333,-9.4167,[146.6333 -9.9167 147.6333 -8.9167],0.191,-0.103,0.464,0.183,0.186,-0.09,0.554,0.229,131.0,480.0
2015-05-21,PortMoresby,PapuaNewGuinea,147.1333,-9.4167,[146.6333 -9.9167 147.6333 -8.9167],0.191,-0.103,0.464,0.183,0.175,-0.077,0.531,0.22,131.0,465.0
2015-05-22,PortMoresby,PapuaNewGuinea,147.1333,-9.4167,[146.6333 -9.9167 147.6333 -8.9167],0.191,-0.103,0.491,0.195,0.171,-0.085,0.526,0.219,151.0,467.0
2015-05-23,PortMoresby,PapuaNewGuinea,147.1333,-9.4167,[146.6333 -9.9167 147.6333 -8.9167],0.225,-0.094,0.512,0.227,0.189,-0.083,0.543,0.226,155.0,481.0
2015-05-24,PortMoresby,PapuaNewGuinea,147.1333,-9.4167,[146.6333 -9.9167 147.6333 -8.9167],0.225,-0.093,0.531,0.232,0.173,-0.127,0.518,0.208,157.0,455.0
2015-05-25,PortMoresby,PapuaNewGuinea,147.1333,-9.4167,[146.6333 -9.9167 147.6333 -8.9167],0.232,-0.093,0.532,0.237,0.165,-0.118,0.506,0.201,152.0,470.0
2015-05-26,PortMoresby,PapuaNewGuinea,147.1333,-9.4167,[146.6333 -9.9167 147.6333 -8.9167],0.233,-0.048,0.531,0.252,0.169,-0.1,0.504,0.206,162.0,451.0
2015-05-27,PortMoresby,PapuaNewGuinea,147.1333,-9.4167,[146.6333 -9.9167 147.6333 -8.9167],0.232,-0.048,0.531,0.25,0.166,-0.098,0.497,0.203,161.0,482.0
2015-05-28,PortMoresby,PapuaNewGuinea,147.1333,-9.4167,[146.6333 -9.9167 147.6333 -8.9167],0.232,-0.048,0.512,0.238,0.162,-0.106,0.485,0.195,133.0,462.0
2015-05-29,PortMoresby,PapuaNewGuinea,147.1333,-9.4167,[146.6333 -9.9167 147.6333 -8.9167],0.257,0.038,0.532,0.258,0.177,-0.082,0.508,0.211,121.0,472.0
2015-05-30,PortMoresby,PapuaNewGuinea,147.1333,-9.4167,[146.6333 -9.9167 147.6333 -8.9167],0.271,0.038,0.537,0.264,0.189,-0.068,0.537,0.225,128.0,479.0
2015-05-31,PortMoresby,PapuaNewGuinea,147.1333,-9.4167,[146.6333 -9.9167 147.6333 -8.9167],0.271,0.035,0.549,0.266,0.192,-0.068,0.521,0.224,133.0,459.0
2015-06-01,PortMoresby,PapuaNewGuinea,147.1333,-9.4167,[146.6333 -9.9167 147.6333 -8.9167],0.25,-0.048,0.534,0.247,0.162,-0.098,0.481,0.195,130.0,479.0
2015-06-02,PortMoresby,PapuaNewGuinea,147.1333,-9.4167,[146.6333 -9.9167 147.6333 -8.9167],0.271,0.035,0.53,0.253,0.149,-0.096,0.46,0.191,142.0,501.0
2015-06-03,PortMoresby,PapuaNewGuinea,147.1333,-9.4167,[146.6333 -9.9167 147.6333 -8.9167],0.257,0.025,0.534,0.256,0.147,-0.107,0.423,0.174,135.0,528.0
2015-06-04,PortMoresby,PapuaNewGuinea,147.1333,-9.4167,[146.6333 -9.9167 147.6333 -8.9167],0.242,0.035,0.469,0.248,0.156,-0.097,0.434,0.184,147.0,507.0